Home   Weather   Happy Valley-Goose Bay   Past weeks

Flag for Canada Past Weather in Happy Valley-Goose Bay, Newfoundland and Labrador, Canada — Yesterday and Last 2 Weeks

19 °F

Snow flurries. Passing clouds.

Feels Like: 7 °F
Forecast: 15 / 33 °F
Wind: 12 mph from West

Location: Goose

Current Time: Oct 28, 2016 at 1:52:42 AM

Latest Report: Oct 28, 2016 at 1:00 AM

Visibility: 15 mi

Pressure: 30.50 "Hg

Humidity: 86%

Dew Point: 16 °F

Location of Happy Valley-Goose BayLocation

Past Weather in Happy Valley-Goose Bay — Graph


Happy Valley-Goose Bay Temperature Yesterday

Maximum temperature yesterday: 27 °F (at 2:00 PM)
Minimum temperature yesterday: 18 °F (at 7:00 AM)
Average temperature yesterday: 21 °F

High & Low Weather Summary for the Past Weeks

High70 °F (Oct 13, 3:00 PM)100% (Oct 17, 7:00 AM)30.56 "Hg (Oct 17, 7:00 AM)
Low18 °F (Oct 27, 7:00 AM)35% (Oct 13, 4:00 PM)29.23 "Hg (Oct 24, 5:00 AM)
Average36 °F82%29.95 "Hg
* Reported Oct 13 12:00 AM — Oct 28 12:49 AM, Happy Valley-Goose Bay, Weather by CustomWeather, © 2016

Note: Actual official high and low records may vary slightly from our data, if they occured in-between our weather recording intervals... More about our weather records


Happy Valley-Goose Bay Weather History for the Previous 24 Hours

Scroll right to see more
Time TempWeatherWind HumidityBarometerVisibility
12:49 AM
Fri, Oct 28
19 °FSnow flurries. Overcast.No wind86%30.50 "Hg15 mi
12:00 AM18 °FPassing clouds.3 mph93%30.50 "Hg15 mi
11:51 PM
Thu, Oct 27
18 °FPassing clouds.6 mph93%30.50 "Hg15 mi
11:00 PM19 °FPassing clouds.9 mph86%30.51 "Hg15 mi
10:00 PM19 °FPassing clouds.12 mph86%30.52 "Hg15 mi
9:00 PM21 °FPassing clouds.12 mph80%30.52 "Hg15 mi
8:00 PM21 °FPassing clouds.15 mph80%30.51 "Hg15 mi
7:00 PM21 °FPassing clouds.7 mph86%30.51 "Hg15 mi
6:00 PM23 °FPassing clouds.8 mph80%30.51 "Hg15 mi
5:00 PM25 °FPassing clouds.13 mph80%30.50 "Hg15 mi
4:00 PM27 °FPassing clouds.14 mph74%30.50 "Hg15 mi
3:00 PM25 °FPassing clouds.15 mph74%30.51 "Hg15 mi
2:00 PM27 °FPassing clouds.13 mph69%30.52 "Hg15 mi
1:00 PM25 °FScattered clouds.12 mph69%30.53 "Hg15 mi
12:00 PM23 °FPartly sunny.10 mph74%30.55 "Hg15 mi
11:00 AM19 °FPartly sunny.9 mph79%30.56 "Hg15 mi
10:00 AM19 °FPartly sunny.8 mph79%30.56 "Hg15 mi
9:00 AM18 °FPartly sunny.8 mph86%30.55 "Hg15 mi
8:00 AM18 °FPartly sunny.3 mph93%30.54 "Hg15 mi
7:00 AM18 °FPassing clouds.9 mph93%30.52 "Hg15 mi
6:00 AM19 °FPassing clouds.5 mph93%30.52 "Hg15 mi
5:57 AM19 °FPassing clouds.3 mph93%30.52 "Hg15 mi
5:00 AM19 °FPassing clouds.7 mph93%30.51 "Hg15 mi
4:00 AM21 °FPassing clouds.8 mph86%30.51 "Hg15 mi
3:00 AM23 °FPassing clouds.6 mph80%30.50 "Hg15 mi
2:00 AM23 °FPassing clouds.7 mph86%30.49 "Hg15 mi
1:00 AM21 °FPassing clouds.7 mph93%30.49 "Hg15 mi
Weather by CustomWeather, © 2016

See weather overviewHow to use our weather pages